| time (UTC) | temp F | wind direction | speed knots | gust knots | rain 1hr in | rain 24hr in | rain mn in | humidity % | barometer mb |
| 20260903160057 | 57 | 206 | 0.0 | 0.0 | 0.00 | 0.06 | 0.06 | 89 | 1010.2 |
| 20260903155556 | 56 | 157 | 0.0 | 0.9 | 0.00 | 0.06 | 0.06 | 91 | 1010.3 |
| 20260903155051 | 56 | 202 | 0.0 | 0.0 | 0.00 | 0.06 | 0.06 | 92 | 1010.4 |
| 20260903154548 | 56 | 203 | 0.0 | 0.0 | 0.00 | 0.06 | 0.06 | 92 | 1010.2 |
| 20260903154043 | 56 | 202 | 0.0 | 0.0 | 0.00 | 0.06 | 0.06 | 92 | 1010.1 |
| 20260903153538 | 55 | 198 | 0.0 | 0.0 | 0.00 | 0.06 | 0.06 | 92 | 1010.1 |
| 20260903153035 | 55 | 143 | 0.0 | 0.0 | 0.00 | 0.06 | 0.06 | 92 | 1010.0 |
| 20260903152530 | 55 | 198 | 0.0 | 0.0 | 0.00 | 0.06 | 0.06 | 92 | 1010.0 |
| 20260903152027 | 55 | 199 | 0.0 | 0.0 | 0.00 | 0.06 | 0.06 | 92 | 1010.3 |
| 20260903151525 | 55 | 199 | 0.0 | 0.0 | 0.00 | 0.06 | 0.06 | 92 | 1010.1 |
| 20260903151021 | 55 | 200 | 0.0 | 0.0 | 0.00 | 0.06 | 0.06 | 92 | 1010.0 |
| 20260903150515 | 55 | 199 | 0.0 | 0.0 | 0.00 | 0.06 | 0.06 | 93 | 1010.3 |
| 20260903150010 | 54 | 201 | 0.0 | 0.0 | 0.00 | 0.06 | 0.06 | 93 | 1010.1 |
| 20260903145504 | 54 | 197 | 0.0 | 0.0 | 0.00 | 0.06 | 0.06 | 94 | 1010.0 |
| 20260903145000 | 54 | 203 | 0.0 | 0.0 | 0.00 | 0.06 | 0.06 | 94 | 1010.1 |
| 20260903144459 | 54 | 196 | 0.0 | 0.0 | 0.00 | 0.06 | 0.06 | 95 | 1009.9 |
| 20260903143955 | 54 | 129 | 0.0 | 0.0 | 0.00 | 0.06 | 0.06 | 95 | 1010.1 |
| 20260903143451 | 54 | 190 | 0.0 | 0.0 | 0.00 | 0.06 | 0.06 | 95 | 1010.0 |
| 20260903142947 | 54 | 200 | 0.0 | 0.0 | 0.00 | 0.06 | 0.06 | 95 | 1010.0 |
| 20260903142442 | 54 | 201 | 0.0 | 0.9 | 0.00 | 0.06 | 0.06 | 96 | 1009.9 |
| 20260903141938 | 54 | 202 | 0.0 | 0.0 | 0.00 | 0.06 | 0.06 | 96 | 1010.0 |
| 20260903141433 | 54 | 201 | 0.0 | 0.0 | 0.00 | 0.06 | 0.06 | 96 | 1009.8 |
| 20260903140929 | 54 | 202 | 0.0 | 0.0 | 0.00 | 0.06 | 0.06 | 96 | 1009.7 |
| 20260903140425 | 53 | 201 | 0.0 | 0.9 | 0.00 | 0.06 | 0.06 | 97 | 1009.8 |
| 20260903135925 | 53 | 157 | 0.0 | 0.0 | 0.05 | 0.06 | 0.06 | 97 | 1009.8 |
| 20260903135421 | 53 | 206 | 0.0 | 0.9 | 0.00 | 0.05 | 0.05 | 97 | 1010.0 |
| 20260903134915 | 53 | 201 | 0.0 | 0.0 | 0.00 | 0.05 | 0.05 | 97 | 1009.9 |
| 20260903134414 | 53 | 203 | 0.0 | 0.0 | 0.00 | 0.05 | 0.05 | 97 | 1009.9 |
| 20260903133912 | 53 | 201 | 0.0 | 0.0 | 0.00 | 0.05 | 0.05 | 97 | 1009.9 |
| 20260903133408 | 53 | 201 | 0.0 | 0.0 | 0.07 | 0.05 | 0.05 | 97 | 1009.8 |
| 20260903132903 | 53 | 200 | 0.0 | 0.0 | 0.07 | 0.05 | 0.05 | 97 | 1009.7 |
| 20260903132359 | 53 | 200 | 0.0 | 0.0 | 0.00 | 0.04 | 0.04 | 97 | 1009.8 |
| 20260903131853 | 53 | 198 | 0.0 | 0.0 | 0.00 | 0.04 | 0.04 | 96 | 1009.8 |
| 20260903131353 | 53 | 206 | 0.0 | 0.0 | 0.05 | 0.04 | 0.04 | 96 | 1009.7 |
| 20260903130852 | 53 | 200 | 0.0 | 0.0 | 0.05 | 0.04 | 0.04 | 96 | 1009.8 |
| 20260903130347 | 53 | 199 | 0.0 | 0.0 | 0.00 | 0.03 | 0.03 | 95 | 1009.6 |
| 20260903125846 | 54 | 199 | 0.0 | 0.0 | 0.00 | 0.03 | 0.03 | 95 | 1009.7 |
| 20260903125341 | 54 | 201 | 0.0 | 0.0 | 0.00 | 0.03 | 0.03 | 94 | 1009.8 |
| 20260903124840 | 54 | 199 | 0.0 | 0.0 | 0.07 | 0.03 | 0.03 | 93 | 1009.7 |
| 20260903124336 | 54 | 211 | 0.0 | 0.0 | 0.07 | 0.03 | 0.03 | 93 | 1009.8 |
| 20260903123834 | 54 | 211 | 0.0 | 0.0 | 0.00 | 0.02 | 0.02 | 92 | 1009.7 |
| 20260903123329 | 54 | 212 | 0.0 | 0.9 | 0.07 | 0.02 | 0.02 | 91 | 1009.9 |
| 20260903122828 | 55 | 210 | 0.0 | 0.9 | 0.07 | 0.02 | 0.02 | 90 | 1009.5 |
| 20260903122322 | 55 | 207 | 0.0 | 2.6 | 0.00 | 0.01 | 0.01 | 89 | 1009.6 |
| 20260903121821 | 55 | 217 | 0.0 | 0.0 | 0.00 | 0.01 | 0.01 | 88 | 1009.6 |
| 20260903121311 | 55 | 224 | 0.0 | 0.0 | 0.00 | 0.01 | 0.01 | 88 | 1009.2 |
| 20260903120807 | 55 | 212 | 0.0 | 0.0 | 0.00 | 0.01 | 0.01 | 86 | 1009.1 |
| 20260903120306 | 55 | 204 | 0.0 | 0.0 | 0.00 | 0.01 | 0.01 | 85 | 1009.0 |
| 20260903115804 | 55 | 198 | 0.0 | 0.0 | 0.00 | 0.01 | 0.01 | 85 | 1008.8 |
| 20260903115300 | 55 | 198 | 0.0 | 0.9 | 0.00 | 0.01 | 0.01 | 86 | 1009.2 |
| 20260903114759 | 55 | 205 | 0.0 | 0.0 | 0.00 | 0.01 | 0.01 | 86 | 1009.0 |
| 20260903114255 | 55 | 193 | 0.9 | 0.9 | 0.00 | 0.01 | 0.01 | 85 | 1008.9 |
| 20260903113750 | 56 | 177 | 0.0 | 0.0 | 0.05 | 0.01 | 0.01 | 85 | 1009.2 |
| 20260903113246 | 56 | 197 | 0.0 | 0.9 | 0.05 | 0.01 | 0.01 | 84 | 1009.1 |
| 20260903112742 | 56 | 185 | 0.0 | 0.0 | 0.00 | 0.00 | 0.00 | 83 | 1008.9 |
| 20260903112238 | 56 | 193 | 0.0 | 0.9 | 0.00 | 0.00 | 0.00 | 83 | 1009.1 |
| 20260903111736 | 56 | 196 | 0.0 | 0.0 | 0.00 | 0.00 | 0.00 | 82 | 1009.1 |
| 20260903111231 | 56 | 198 | 0.0 | 0.0 | 0.00 | 0.00 | 0.00 | 82 | 1009.2 |
| 20260903110727 | 56 | 201 | 0.0 | 1.7 | 0.00 | 0.00 | 0.00 | 82 | 1009.0 |
| 20260903110223 | 55 | 198 | 0.0 | 0.0 | 0.00 | 0.00 | 0.00 | 82 | 1009.0 |
| 20260903105723 | 55 | 198 | 0.0 | 0.0 | 0.00 | 0.00 | 0.00 | 83 | 1008.9 |
| 20260903105218 | 55 | 200 | 0.0 | 0.0 | 0.00 | 0.00 | 0.00 | 84 | 1009.0 |
| 20260903104717 | 55 | 197 | 0.0 | 0.0 | 0.00 | 0.00 | 0.00 | 83 | 1009.2 |
| 20260903104213 | 55 | 198 | 0.0 | 0.0 | 0.00 | 0.00 | 0.00 | 84 | 1009.1 |
| 20260903103708 | 55 | 199 | 0.0 | 0.9 | 0.00 | 0.00 | 0.00 | 85 | 1009.1 |
| 20260903103204 | 55 | 202 | 0.0 | 0.9 | 0.00 | 0.00 | 0.00 | 86 | 1008.9 |
| 20260903102659 | 55 | 203 | 0.0 | 0.0 | 0.00 | 0.00 | 0.00 | 84 | 1009.0 |
| 20260903102154 | 55 | 200 | 0.0 | 0.0 | 0.00 | 0.00 | 0.00 | 84 | 1008.9 |
| 20260903101653 | 55 | 196 | 0.0 | 0.0 | 0.00 | 0.00 | 0.00 | 85 | 1009.0 |
| 20260903101148 | 55 | 205 | 0.0 | 0.9 | 0.00 | 0.00 | 0.00 | 85 | 1009.0 |
| 20260903100643 | 55 | 196 | 0.0 | 0.0 | 0.00 | 0.00 | 0.00 | 86 | 1009.0 |
| 20260903100143 | 55 | 196 | 0.0 | 0.9 | 0.00 | 0.00 | 0.00 | 86 | 1009.0 |
| 20260903095641 | 55 | 194 | 0.0 | 0.0 | 0.00 | 0.00 | 0.00 | 87 | 1009.1 |
| 20260903095140 | 55 | 199 | 0.0 | 0.0 | 0.00 | 0.00 | 0.00 | 86 | 1009.1 |
| 20260903094636 | 55 | 198 | 0.0 | 0.0 | 0.00 | 0.00 | 0.00 | 86 | 1009.0 |
| 20260903094131 | 56 | 202 | 0.0 | 0.9 | 0.00 | 0.00 | 0.00 | 85 | 1009.0 |
| 20260903093626 | 56 | 204 | 0.0 | 0.0 | 0.00 | 0.00 | 0.00 | 83 | 1009.0 |
| 20260903093121 | 56 | 201 | 0.0 | 0.0 | 0.00 | 0.00 | 0.00 | 83 | 1008.9 |
| 20260903092621 | 56 | 201 | 0.0 | 0.0 | 0.00 | 0.00 | 0.00 | 84 | 1009.1 |
| 20260903092116 | 56 | 196 | 0.0 | 0.0 | 0.00 | 0.00 | 0.00 | 83 | 1008.8 |
| 20260903091614 | 55 | 199 | 0.0 | 0.0 | 0.00 | 0.00 | 0.00 | 84 | 1008.9 |
| 20260903091109 | 55 | 197 | 0.0 | 0.0 | 0.00 | 0.00 | 0.00 | 84 | 1009.0 |
| 20260903090605 | 55 | 198 | 0.0 | 0.0 | 0.00 | 0.00 | 0.00 | 84 | 1008.8 |
| 20260903090103 | 55 | 199 | 0.0 | 0.0 | 0.00 | 0.00 | 0.00 | 84 | 1008.8 |
| 20260903085602 | 55 | 200 | 0.0 | 0.0 | 0.00 | 0.00 | 0.00 | 85 | 1008.9 |
| 20260903085058 | 55 | 209 | 0.0 | 0.0 | 0.00 | 0.00 | 0.00 | 85 | 1008.8 |
| 20260903084555 | 55 | 201 | 0.0 | 0.0 | 0.00 | 0.00 | 0.00 | 85 | 1008.8 |
| 20260903084050 | 55 | 204 | 0.0 | 0.9 | 0.00 | 0.00 | 0.00 | 85 | 1008.6 |
| 20260903083546 | 55 | 204 | 0.0 | 0.0 | 0.00 | 0.00 | 0.00 | 86 | 1008.7 |
| 20260903083046 | 55 | 203 | 0.0 | 0.0 | 0.00 | 0.00 | 0.00 | 86 | 1008.7 |
| 20260903082546 | 55 | 201 | 0.0 | 0.0 | 0.00 | 0.00 | 0.00 | 86 | 1008.6 |
| 20260903082042 | 55 | 206 | 0.0 | 0.9 | 0.00 | 0.00 | 0.00 | 86 | 1008.5 |
| 20260903081537 | 55 | 205 | 0.9 | 0.9 | 0.00 | 0.00 | 0.00 | 87 | 1008.9 |
| 20260903081033 | 55 | 208 | 0.0 | 0.9 | 0.00 | 0.00 | 0.00 | 87 | 1008.8 |
| 20260903080529 | 54 | 187 | 0.0 | 0.9 | 0.00 | 0.00 | 0.00 | 89 | 1008.9 |
| 20260903080026 | 55 | 199 | 0.0 | 0.0 | 0.00 | 0.00 | 0.00 | 89 | 1008.7 |
| 20260903075520 | 55 | 200 | 0.0 | 0.9 | 0.00 | 0.00 | 0.00 | 88 | 1008.8 |
| 20260903075015 | 55 | 201 | 0.0 | 0.9 | 0.00 | 0.00 | 0.00 | 88 | 1008.9 |
| 20260903074514 | 55 | 200 | 0.0 | 0.9 | 0.00 | 0.00 | 0.00 | 88 | 1008.7 |
| 20260903074009 | 55 | 206 | 0.0 | 0.0 | 0.00 | 0.00 | 0.00 | 88 | 1008.7 |
| 20260903073505 | 55 | 201 | 0.0 | 0.9 | 0.00 | 0.00 | 0.00 | 88 | 1008.6 |
| 20260903073001 | 55 | 205 | 0.0 | 0.0 | 0.00 | 0.00 | 0.00 | 89 | 1008.8 |
| 20260903072456 | 55 | 202 | 0.0 | 0.0 | 0.00 | 0.00 | 0.00 | 89 | 1008.7 |
| 20260903071953 | 55 | 203 | 0.0 | 0.0 | 0.00 | 0.00 | 0.00 | 89 | 1008.6 |
| 20260903071448 | 55 | 198 | 0.0 | 0.0 | 0.00 | 0.00 | 0.00 | 90 | 1008.7 |
| 20260903070943 | 55 | 136 | 0.0 | 0.9 | 0.00 | 0.00 | 0.00 | 90 | 1008.7 |
| 20260903070438 | 55 | 201 | 0.0 | 0.0 | 0.00 | 0.00 | 0.00 | 89 | 1008.8 |
| 20260903065933 | 55 | 200 | 0.0 | 0.0 | 0.00 | 0.25 | 0.25 | 89 | 1008.6 |
| 20260903065433 | 55 | 204 | 0.0 | 1.7 | 0.00 | 0.25 | 0.25 | 88 | 1008.6 |
| 20260903064932 | 55 | 203 | 0.0 | 0.0 | 0.00 | 0.25 | 0.25 | 88 | 1008.7 |
| 20260903064427 | 55 | 203 | 0.9 | 1.7 | 0.00 | 0.25 | 0.25 | 88 | 1008.8 |
| 20260903063923 | 55 | 202 | 0.0 | 0.0 | 0.00 | 0.25 | 0.25 | 89 | 1008.8 |
| 20260903063418 | 55 | 206 | 0.0 | 0.9 | 0.00 | 0.25 | 0.25 | 89 | 1008.6 |
| 20260903062913 | 55 | 200 | 0.0 | 0.0 | 0.00 | 0.25 | 0.25 | 90 | 1008.6 |
| 20260903062408 | 55 | 206 | 0.0 | 0.0 | 0.00 | 0.25 | 0.25 | 90 | 1008.5 |
| 20260903061904 | 55 | 205 | 0.0 | 0.0 | 0.00 | 0.25 | 0.25 | 91 | 1008.4 |
| 20260903061403 | 55 | 205 | 0.0 | 0.0 | 0.00 | 0.25 | 0.25 | 91 | 1008.4 |
| 20260903060859 | 55 | 203 | 0.0 | 0.9 | 0.00 | 0.25 | 0.25 | 91 | 1008.4 |
| 20260903060359 | 55 | 205 | 0.0 | 1.7 | 0.00 | 0.25 | 0.25 | 91 | 1008.5 |
| 20260903055856 | 55 | 205 | 0.0 | 0.0 | 0.00 | 0.25 | 0.25 | 92 | 1008.5 |
| 20260903055354 | 55 | 200 | 0.0 | 0.0 | 0.00 | 0.25 | 0.25 | 93 | 1008.7 |
| 20260903054849 | 55 | 206 | 0.0 | 0.0 | 0.00 | 0.25 | 0.25 | 94 | 1008.5 |
| 20260903054344 | 55 | 206 | 0.0 | 0.9 | 0.00 | 0.25 | 0.25 | 94 | 1008.9 |
| 20260903053841 | 55 | 204 | 0.0 | 0.9 | 0.00 | 0.25 | 0.25 | 95 | 1008.6 |
| 20260903053335 | 55 | 204 | 0.0 | 0.0 | 0.00 | 0.25 | 0.25 | 96 | 1008.7 |
| 20260903052831 | 55 | 203 | 0.0 | 0.0 | 0.00 | 0.25 | 0.25 | 96 | 1008.6 |
| 20260903052327 | 55 | 204 | 0.0 | 0.0 | 0.00 | 0.25 | 0.25 | 96 | 1008.7 |
| 20260903051823 | 55 | 202 | 0.0 | 0.0 | 0.00 | 0.25 | 0.25 | 97 | 1008.7 |
| 20260903051317 | 55 | 202 | 0.0 | 0.0 | 0.00 | 0.25 | 0.25 | 97 | 1008.6 |
| 20260903050813 | 55 | 202 | 0.0 | 0.0 | 0.00 | 0.25 | 0.25 | 97 | 1008.5 |
| 20260903050312 | 55 | 203 | 0.0 | 0.0 | 0.00 | 0.25 | 0.25 | 97 | 1008.6 |
| 20260903045807 | 55 | 206 | 0.0 | 0.9 | 0.00 | 0.25 | 0.25 | 97 | 1008.6 |
| 20260903045306 | 55 | 201 | 0.0 | 0.9 | 0.00 | 0.25 | 0.25 | 98 | 1008.5 |
| 20260903044759 | 55 | 203 | 0.0 | 0.0 | 0.00 | 0.25 | 0.25 | 98 | 1008.7 |
| 20260903044254 | 55 | 202 | 0.0 | 0.0 | 0.00 | 0.25 | 0.25 | 98 | 1008.6 |
| 20260903043751 | 55 | 201 | 0.0 | 0.0 | 0.00 | 0.25 | 0.25 | 98 | 1008.7 |
| 20260903043250 | 55 | 202 | 0.0 | 0.0 | 0.00 | 0.25 | 0.25 | 98 | 1008.4 |
| 20260903042749 | 55 | 205 | 0.0 | 0.9 | 0.00 | 0.25 | 0.25 | 97 | 1008.5 |
| 20260903042245 | 55 | 205 | 0.0 | 1.7 | 0.00 | 0.25 | 0.25 | 97 | 1008.6 |
| 20260903041741 | 55 | 203 | 0.0 | 0.0 | 0.00 | 0.25 | 0.25 | 98 | 1008.3 |
| 20260903041237 | 56 | 206 | 0.0 | 0.0 | 0.00 | 0.25 | 0.25 | 98 | 1008.3 |
| 20260903040737 | 56 | 154 | 0.0 | 0.0 | 0.00 | 0.25 | 0.25 | 98 | 1008.5 |
| 20260903040231 | 56 | 190 | 0.0 | 0.9 | 0.00 | 0.25 | 0.25 | 98 | 1008.4 |
| 20260903035727 | 56 | 197 | 0.0 | 0.0 | 0.00 | 0.25 | 0.25 | 98 | 1008.4 |
| 20260903035223 | 56 | 204 | 0.0 | 0.9 | 0.00 | 0.25 | 0.25 | 98 | 1008.2 |
| 20260903034723 | 56 | 59 | 0.0 | 0.9 | 0.00 | 0.25 | 0.25 | 98 | 1008.1 |
| 20260903034218 | 56 | 205 | 0.0 | 0.9 | 0.00 | 0.25 | 0.25 | 98 | 1008.1 |
| 20260903033713 | 56 | 204 | 0.0 | 0.9 | 0.00 | 0.25 | 0.25 | 98 | 1008.1 |
| 20260903033208 | 57 | 207 | 0.0 | 0.9 | 0.00 | 0.25 | 0.25 | 98 | 1007.7 |
| 20260903032703 | 57 | 202 | 0.0 | 0.0 | 0.00 | 0.25 | 0.25 | 98 | 1007.9 |
| 20260903032158 | 57 | 202 | 0.0 | 0.9 | 0.00 | 0.25 | 0.25 | 98 | 1007.7 |
| 20260903031654 | 57 | 202 | 0.0 | 0.9 | 0.00 | 0.25 | 0.25 | 98 | 1007.8 |
| 20260903031148 | 57 | 201 | 0.0 | 0.9 | 0.00 | 0.25 | 0.25 | 98 | 1007.6 |
| 20260903030644 | 57 | 204 | 0.0 | 0.9 | 0.00 | 0.25 | 0.25 | 97 | 1007.4 |
| 20260903030139 | 57 | 84 | 0.0 | 0.0 | 0.00 | 0.25 | 0.25 | 97 | 1007.4 |
| 20260903025634 | 56 | 206 | 0.0 | 0.0 | 0.00 | 0.25 | 0.25 | 96 | 1007.6 |
| 20260903025130 | 56 | 201 | 0.0 | 0.0 | 0.00 | 0.25 | 0.25 | 96 | 1007.5 |
| 20260903024625 | 57 | 201 | 0.0 | 0.0 | 0.00 | 0.25 | 0.25 | 95 | 1007.4 |
| 20260903024119 | 57 | 208 | 0.0 | 0.0 | 0.00 | 0.25 | 0.25 | 94 | 1007.2 |
| 20260903023614 | 57 | 206 | 0.0 | 0.0 | 0.00 | 0.25 | 0.25 | 93 | 1007.3 |
| 20260903023114 | 58 | 203 | 0.0 | 0.9 | 0.00 | 0.25 | 0.25 | 92 | 1007.1 |
| 20260903022609 | 58 | 210 | 0.0 | 0.9 | 0.00 | 0.25 | 0.25 | 91 | 1007.3 |
| 20260903022108 | 58 | 213 | 0.9 | 1.7 | 0.00 | 0.25 | 0.25 | 91 | 1007.0 |
| 20260903021602 | 59 | 202 | 0.0 | 1.7 | 0.00 | 0.25 | 0.25 | 92 | 1007.0 |
| 20260903021057 | 59 | 227 | 2.6 | 2.6 | 0.00 | 0.25 | 0.25 | 92 | 1007.0 |
| 20260903020552 | 58 | 214 | 0.0 | 2.6 | 0.00 | 0.25 | 0.25 | 93 | 1007.2 |
| 20260903020047 | 59 | 204 | 0.0 | 0.9 | 0.00 | 0.25 | 0.25 | 94 | 1006.9 |
| 20260903015543 | 58 | 205 | 0.0 | 1.7 | 0.00 | 0.25 | 0.25 | 93 | 1007.0 |
| 20260903015038 | 59 | 208 | 0.0 | 1.7 | 0.00 | 0.25 | 0.25 | 92 | 1007.1 |
| 20260903014537 | 59 | 210 | 0.0 | 1.7 | 0.00 | 0.25 | 0.25 | 91 | 1006.8 |
| 20260903014032 | 59 | 216 | 0.0 | 2.6 | 0.00 | 0.25 | 0.25 | 92 | 1006.6 |
| 20260903013531 | 59 | 232 | 2.6 | 5.2 | 0.00 | 0.25 | 0.25 | 94 | 1006.8 |
| 20260903013026 | 59 | 199 | 1.7 | 5.2 | 0.00 | 0.25 | 0.25 | 97 | 1006.7 |
| 20260903012525 | 58 | 206 | 1.7 | 2.6 | 0.00 | 0.25 | 0.25 | 97 | 1006.7 |
| 20260903012024 | 58 | 205 | 0.0 | 2.6 | 0.00 | 0.25 | 0.25 | 98 | 1006.4 |
| 20260903011519 | 58 | 208 | 0.9 | 2.6 | 0.00 | 0.25 | 0.25 | 98 | 1006.3 |
| 20260903011014 | 58 | 202 | 0.9 | 1.7 | 0.00 | 0.25 | 0.25 | 98 | 1006.2 |
| 20260903010509 | 59 | 270 | 1.7 | 4.3 | 0.00 | 0.25 | 0.25 | 98 | 1006.1 |
| 20260903010008 | 59 | 213 | 0.0 | 1.7 | 0.00 | 0.25 | 0.25 | 99 | 1006.2 |
| 20260903005503 | 59 | 208 | 1.7 | 4.3 | 0.07 | 0.25 | 0.25 | 99 | 1006.2 |
| 20260903004958 | 59 | 248 | 0.0 | 4.3 | 0.07 | 0.25 | 0.25 | 99 | 1005.9 |
| 20260903004453 | 59 | 217 | 1.7 | 2.6 | 0.05 | 0.24 | 0.24 | 99 | 1006.0 |
| 20260903003949 | 59 | 209 | 0.0 | 0.9 | 0.12 | 0.24 | 0.24 | 99 | 1005.7 |
| 20260903003448 | 59 | 209 | 0.9 | 1.7 | 0.07 | 0.23 | 0.23 | 99 | 1006.1 |
| 20260903002943 | 59 | 225 | 2.6 | 7.0 | 0.00 | 0.22 | 0.22 | 99 | 1006.0 |
| 20260903002438 | 59 | 209 | 0.0 | 0.0 | 0.00 | 0.22 | 0.22 | 99 | 1005.7 |
| 20260903001938 | 59 | 215 | 0.0 | 0.0 | 0.00 | 0.22 | 0.22 | 99 | 1005.4 |
| 20260903001438 | 60 | 215 | 0.0 | 0.0 | 0.00 | 0.22 | 0.22 | 99 | 1005.5 |
| 20260903000932 | 60 | 212 | 0.0 | 0.0 | 0.00 | 0.22 | 0.22 | 99 | 1005.6 |
| 20260903000428 | 60 | 212 | 0.0 | 0.0 | 0.00 | 0.22 | 0.22 | 99 | 1005.2 |
| 20260902235925 | 60 | 208 | 0.0 | 0.0 | 0.00 | 0.22 | 0.22 | 99 | 1005.5 |
| 20260902235420 | 60 | 211 | 0.0 | 0.0 | 0.00 | 0.22 | 0.22 | 99 | 1005.5 |
| 20260902234915 | 60 | 211 | 0.0 | 0.0 | 0.00 | 0.22 | 0.22 | 99 | 1005.3 |
| 20260902234410 | 59 | 211 | 0.0 | 0.0 | 0.00 | 0.22 | 0.22 | 99 | 1005.5 |
| 20260902233909 | 59 | 216 | 0.0 | 0.0 | 0.00 | 0.22 | 0.22 | 98 | 1005.4 |
| 20260902233403 | 59 | 200 | 0.0 | 0.9 | 0.00 | 0.22 | 0.22 | 98 | 1005.5 |
| 20260902232901 | 59 | 197 | 0.0 | 0.0 | 0.00 | 0.22 | 0.22 | 98 | 1005.6 |
| 20260902232356 | 59 | 203 | 0.0 | 0.0 | 0.05 | 0.22 | 0.22 | 98 | 1005.7 |
| 20260902231851 | 59 | 203 | 0.0 | 0.0 | 0.12 | 0.22 | 0.22 | 98 | 1005.9 |
| 20260902231346 | 59 | 204 | 0.0 | 0.0 | 0.12 | 0.21 | 0.21 | 98 | 1006.0 |
| 20260902230841 | 60 | 202 | 0.0 | 0.0 | 0.07 | 0.19 | 0.19 | 98 | 1006.0 |
| 20260902230340 | 60 | 203 | 0.0 | 0.0 | 0.12 | 0.19 | 0.19 | 98 | 1006.0 |
| 20260902225834 | 60 | 188 | 0.0 | 0.0 | 0.12 | 0.18 | 0.18 | 98 | 1006.3 |
| 20260902225329 | 60 | 212 | 0.0 | 0.0 | 0.07 | 0.17 | 0.17 | 97 | 1006.1 |
| 20260902224827 | 60 | 213 | 0.0 | 0.0 | 0.05 | 0.16 | 0.16 | 97 | 1006.2 |
| 20260902224323 | 60 | 213 | 0.0 | 0.0 | 0.07 | 0.15 | 0.15 | 97 | 1005.7 |
| 20260902223819 | 60 | 216 | 0.0 | 0.0 | 0.07 | 0.15 | 0.15 | 96 | 1005.9 |
| 20260902223319 | 60 | 206 | 0.0 | 0.0 | 0.07 | 0.14 | 0.14 | 96 | 1005.7 |
| 20260902222819 | 60 | 207 | 0.0 | 0.0 | 0.12 | 0.14 | 0.14 | 96 | 1005.9 |
| 20260902222312 | 60 | 205 | 0.0 | 0.0 | 0.05 | 0.13 | 0.13 | 95 | 1005.7 |
| 20260902221807 | 60 | 215 | 0.0 | 0.0 | 0.07 | 0.12 | 0.12 | 95 | 1005.8 |
| 20260902221306 | 60 | 216 | 0.0 | 0.0 | 0.12 | 0.12 | 0.12 | 94 | 1006.0 |
| 20260902220802 | 60 | 214 | 0.0 | 2.6 | 0.07 | 0.10 | 0.10 | 94 | 1005.9 |
| 20260902220301 | 60 | 212 | 0.0 | 0.0 | 0.12 | 0.10 | 0.10 | 93 | 1005.8 |
| 20260902215757 | 60 | 212 | 0.0 | 0.0 | 0.12 | 0.09 | 0.09 | 92 | 1006.2 |
| 20260902215252 | 60 | 213 | 0.0 | 0.9 | 0.07 | 0.08 | 0.08 | 92 | 1005.9 |
| 20260902214748 | 60 | 211 | 0.0 | 0.9 | 0.00 | 0.07 | 0.07 | 91 | 1006.2 |
| 20260902214247 | 60 | 247 | 0.0 | 1.7 | 0.05 | 0.07 | 0.07 | 90 | 1006.1 |
| 20260902213743 | 61 | 208 | 0.9 | 2.6 | 0.05 | 0.07 | 0.07 | 90 | 1006.0 |
| 20260902213242 | 61 | 207 | 0.0 | 1.7 | 0.00 | 0.06 | 0.06 | 89 | 1006.0 |
| 20260902212741 | 61 | 212 | 0.0 | 1.7 | 0.07 | 0.06 | 0.06 | 90 | 1006.1 |
| 20260902212238 | 61 | 218 | 0.9 | 1.7 | 0.00 | 0.05 | 0.05 | 89 | 1006.2 |
| 20260902211734 | 62 | 244 | 0.0 | 1.7 | 0.05 | 0.05 | 0.05 | 88 | 1006.1 |
| 20260902211230 | 62 | 210 | 0.9 | 2.6 | 0.05 | 0.05 | 0.05 | 86 | 1006.1 |
| 20260902210730 | 62 | 272 | 0.9 | 5.2 | 0.00 | 0.04 | 0.04 | 84 | 1006.0 |
| 20260902210225 | 63 | 218 | 0.9 | 2.6 | 0.00 | 0.04 | 0.04 | 84 | 1005.9 |
| 20260902205723 | 64 | 231 | 0.9 | 2.6 | 0.00 | 0.04 | 0.04 | 83 | 1006.0 |
| 20260902205218 | 64 | 233 | 0.9 | 1.7 | 0.00 | 0.04 | 0.04 | 83 | 1006.2 |
| 20260902204714 | 65 | 237 | 3.5 | 4.3 | 0.00 | 0.04 | 0.04 | 80 | 1006.0 |
| 20260902204208 | 65 | 213 | 0.0 | 1.7 | 0.00 | 0.04 | 0.04 | 84 | 1005.9 |
| 20260902203703 | 65 | 217 | 0.0 | 0.0 | 0.00 | 0.04 | 0.04 | 87 | 1006.0 |
| 20260902203158 | 64 | 217 | 0.0 | 0.0 | 0.00 | 0.04 | 0.04 | 89 | 1006.0 |
| 20260902202653 | 63 | 216 | 0.0 | 0.0 | 0.00 | 0.04 | 0.04 | 89 | 1006.0 |
| 20260902202150 | 62 | 205 | 0.0 | 0.9 | 0.00 | 0.04 | 0.04 | 91 | 1006.1 |
| 20260902201646 | 63 | 216 | 0.0 | 0.0 | 0.00 | 0.04 | 0.04 | 93 | 1006.0 |
| 20260902201144 | 62 | 217 | 0.0 | 0.0 | 0.00 | 0.04 | 0.04 | 93 | 1006.1 |
| 20260902200639 | 61 | 218 | 0.0 | 0.0 | 0.00 | 0.04 | 0.04 | 92 | 1006.3 |
| 20260902200135 | 60 | 214 | 0.0 | 0.0 | 0.07 | 0.04 | 0.04 | 92 | 1006.3 |
| 20260902195631 | 60 | 223 | 0.0 | 2.6 | 0.19 | 0.04 | 0.04 | 89 | 1006.2 |
| 20260902195131 | 61 | 268 | 2.6 | 5.2 | 0.07 | 0.02 | 0.02 | 86 | 1006.4 |
| 20260902194629 | 64 | 220 | 2.6 | 7.0 | 0.00 | 0.01 | 0.01 | 80 | 1006.3 |
| 20260902194125 | 66 | 243 | 3.5 | 8.7 | 0.00 | 0.01 | 0.01 | 68 | 1006.3 |
| 20260902193620 | 67 | 241 | 1.7 | 7.8 | 0.00 | 0.01 | 0.01 | 68 | 1006.0 |
| 20260902193115 | 71 | 240 | 2.6 | 6.1 | 0.00 | 0.01 | 0.01 | 63 | 1006.2 |
| 20260902192613 | 72 | 212 | 2.6 | 2.6 | 0.00 | 0.01 | 0.01 | 57 | 1006.0 |
| 20260902192112 | 72 | 213 | 0.0 | 1.7 | 0.00 | 0.01 | 0.01 | 60 | 1005.9 |
| 20260902191608 | 71 | 217 | 0.0 | 0.0 | 0.00 | 0.01 | 0.01 | 63 | 1006.0 |
| 20260902191102 | 70 | 217 | 0.0 | 0.9 | 0.00 | 0.01 | 0.01 | 63 | 1006.1 |
| 20260902190558 | 70 | 217 | 0.0 | 0.0 | 0.00 | 0.01 | 0.01 | 62 | 1005.9 |
| 20260902190053 | 69 | 207 | 0.9 | 1.7 | 0.00 | 0.01 | 0.01 | 63 | 1006.1 |
| 20260902185549 | 69 | 218 | 0.0 | 0.9 | 0.00 | 0.01 | 0.01 | 61 | 1006.1 |
| 20260902185044 | 69 | 201 | 0.0 | 0.0 | 0.00 | 0.01 | 0.01 | 63 | 1006.1 |
| 20260902184539 | 69 | 199 | 0.0 | 0.0 | 0.00 | 0.01 | 0.01 | 64 | 1006.3 |
| 20260902184034 | 68 | 202 | 0.0 | 0.0 | 0.00 | 0.01 | 0.01 | 66 | 1006.2 |
| 20260902183531 | 68 | 215 | 0.0 | 0.0 | 0.00 | 0.01 | 0.01 | 66 | 1006.2 |
| 20260902183027 | 68 | 201 | 0.0 | 0.0 | 0.00 | 0.01 | 0.01 | 70 | 1006.5 |
| 20260902182523 | 67 | 215 | 0.0 | 0.0 | 0.00 | 0.01 | 0.01 | 70 | 1006.6 |
| 20260902182019 | 66 | 211 | 0.0 | 0.0 | 0.00 | 0.01 | 0.01 | 72 | 1006.3 |
| 20260902181514 | 66 | 203 | 0.0 | 0.0 | 0.00 | 0.01 | 0.01 | 74 | 1006.4 |
| 20260902181008 | 65 | 201 | 0.0 | 0.9 | 0.00 | 0.01 | 0.01 | 72 | 1006.6 |
| 20260902180503 | 66 | 215 | 0.0 | 0.0 | 0.00 | 0.01 | 0.01 | 72 | 1006.6 |
| 20260902175958 | 66 | 197 | 0.0 | 0.0 | 0.00 | 0.01 | 0.01 | 72 | 1006.7 |
| 20260902175453 | 66 | 197 | 0.0 | 0.0 | 0.00 | 0.01 | 0.01 | 71 | 1006.7 |
| 20260902174949 | 66 | 211 | 0.0 | 0.9 | 0.00 | 0.01 | 0.01 | 71 | 1006.9 |
| 20260902174446 | 66 | 209 | 0.0 | 0.0 | 0.00 | 0.01 | 0.01 | 74 | 1006.8 |
| 20260902173941 | 65 | 210 | 0.0 | 0.0 | 0.00 | 0.01 | 0.01 | 72 | 1007.0 |
| 20260902173440 | 66 | 199 | 0.0 | 0.0 | 0.00 | 0.01 | 0.01 | 72 | 1006.9 |
| 20260902172935 | 66 | 203 | 0.0 | 0.0 | 0.00 | 0.01 | 0.01 | 72 | 1006.9 |
| 20260902172434 | 66 | 202 | 0.0 | 0.9 | 0.00 | 0.01 | 0.01 | 71 | 1007.0 |
| 20260902171930 | 65 | 210 | 0.0 | 0.0 | 0.00 | 0.01 | 0.01 | 71 | 1007.0 |
| 20260902171425 | 65 | 216 | 0.0 | 0.9 | 0.00 | 0.01 | 0.01 | 72 | 1007.1 |
| 20260902170921 | 65 | 216 | 0.0 | 0.0 | 0.00 | 0.01 | 0.01 | 74 | 1007.2 |
| 20260902170416 | 64 | 217 | 0.0 | 0.9 | 0.00 | 0.01 | 0.01 | 74 | 1007.2 |
| 20260902165912 | 65 | 216 | 0.0 | 0.9 | 0.00 | 0.01 | 0.01 | 75 | 1007.1 |
| 20260902165411 | 65 | 217 | 0.0 | 0.9 | 0.00 | 0.01 | 0.01 | 73 | 1007.6 |
| 20260902164906 | 65 | 224 | 0.0 | 0.0 | 0.00 | 0.01 | 0.01 | 72 | 1007.5 |
| 20260902164401 | 66 | 221 | 0.0 | 0.0 | 0.00 | 0.01 | 0.01 | 72 | 1007.3 |
| 20260902163900 | 65 | 221 | 0.0 | 0.0 | 0.00 | 0.01 | 0.01 | 73 | 1007.4 |
| 20260902163355 | 65 | 217 | 0.0 | 0.0 | 0.00 | 0.01 | 0.01 | 73 | 1007.5 |
| 20260902162853 | 65 | 224 | 0.9 | 0.9 | 0.00 | 0.01 | 0.01 | 73 | 1007.6 |
| 20260902162349 | 65 | 215 | 0.0 | 1.7 | 0.00 | 0.01 | 0.01 | 73 | 1007.6 |
| 20260902161849 | 65 | 200 | 0.0 | 0.9 | 0.00 | 0.01 | 0.01 | 73 | 1007.6 |
| 20260902161344 | 65 | 213 | 0.9 | 0.9 | 0.00 | 0.01 | 0.01 | 74 | 1007.5 |
| 20260902160840 | 65 | 204 | 0.0 | 0.0 | 0.00 | 0.01 | 0.01 | 73 | 1007.5 |
| 20260902160335 | 64 | 205 | 0.0 | 0.0 | 0.00 | 0.01 | 0.01 | 76 | 1007.6 |